Location: Newark
(48.8833°N, 0.9236°W)
Time: 08:50:59
(UTC+00:00)

Transit 4A - Pass Details

Date: 26 November 2019
Orbit: 870 x 975 km, 66.8° (Epoch: 11 December)

Event Time Altitude Azimuth Distance (km) Brightness Sun altitude
Exits shadow 06:24:54 13° 296° (WNW) 2,345 9.3 -10.2°
Maximum altitude 06:28:33 22° 253° (WSW) 1,807 9.0 -9.7°
Drops below altitude 10° 06:32:53 10° 204° (SSW) 2,512 10.2 -9.0°
Sets 06:35:51 0° 190° (S) 3,443 11.0 -8.6°
